SCP
0 0 0 0 0 0 0 0 0 0 0 0 0 0 0 0 0 0 0 0 0 0 0 0 0 0 0 0 0 0 0 0 0 0 0 0 0 0 0 0 0 0 0 0
0 0 0 0 0 0 0 0 0 0 0 0 0 0 0 0 0 0 0 0 0 0 0 0 0 0 0 0 0 0 0 0 0 0 0 0 0 0 0 0 0 0 0 0
0 0 0 0 0 0 0 0 0 0 0 0 0 0 0 0 0 0 0 0 0 0 0 0 0 0 0 0 0 0 0 0 0 0 0 0 0 0 0 0 0 0 0 0
0 0 0 0 0 0 0 0 0 0 0 0 0 0 0 0 0 0 0 0 0 0 0 0 0 0 0 0 0 0 0 0 0 0 0 0 0 0 0 0 0 0 0 0
0 0 0 0 0 0 0 0 0 0 0 0 0 0 0 0 0 0 0 0 0 0 0 0 0 0 0 0 0 0 0 0 0 0 0 0 0 0 0 0 0 0 0 0
0 0 0 0 0 0 0 0 0 0 0 0 0 0 0 0 0 0 0 0 0 0 0 0 0 0 0 0 0 0 0 0 0 0 0 0 0 0 0 0 0 0 0 0
0 0 0 0 0 0 0 0 0 0 0 0 0 0 0 0 0 0 0 0 0 0 0 0 0 0 0 0 0 0 0 0 0 0 0 0 0 0 0 0 0 0 0 0
0 0 0 0 0 0 0 0 0 0 0 0 0 0 0 0 0 0 0 0 0 0 0 0 0 0 0 0 0 0 0 0 0 0 0 0 0 0 0 0 0 0 0 0
0 0 0 0 0 -0 -0 -0 -0 -0 0 0 0 0 0 0 0 0 0 0 0 0 0 0 0 0 0 0 0 0 0 0 0 0 0 0 0 0 0 0 0 0 0 0
0 0 0 0 0 -0 -0 -0 -0 -0 -0 0 0 0 0 0 0 0 0 0 0 0 0 0 0 0 0 0 0 0 0 0 0 0 0 0 0 0 0 0 0 0 0 0
0 0 0 0 0 -0 -0 -0 -0 -0 0 0 0 0 0 0 0 0 0 0 0 0 0 0 0 0 0 0 0 0 0 0 0 0 0 0 0 0 0 0 0 0 0 0
0 0 0 0 0 0 0 0 0 0 0 0 0 0 0 0 0 0 0 0 0 0 0 0 0 0 -0 -0 0 0 0 0 0 0 0 0 0 0 0 0 0 0 0 0
0 0 0 0 0 0 0 0 0 0 0 0 0 0 0 0 0 0 0 0 0 0 0 0 0 0 -0 -0 0 0 0 0 0 0 0 0 0 0 0 0 0 0 0 0
0 0 0 0 0 0 0 0 0 0 0 0 0 0 0 0 0 0 0 0 -0 0 0 0 0 0 0 -0 0 0 0 0 0 0 0 0 0 0 0 0 0 0 0 0
0 0 0 0 0 0 0 0 0 0 0 0 0 0 0 0 0 0 0 0 -0 0 0 0 0 0 0 0 0 0 0 0 0 0 0 0 0 0 0 0 0 0 0 0
0 0 0 0 0 0 0 0 0 0 0 0 0 0 0 0 0 -0 -0 0 0 0 0 0 0 0 0 0 0 0 0 0 0 0 0 0 0 0 0 0 0 0 0 0
0 0 -0 0 0 0 0 0 0 0 0 0 0 0 0 0 -0 -0 -0 0 0 0 0 0 0 0 0 0 0 0 0 0 0 0 0 0 0 0 0 0 0 0 0 0
0 0 -0 0 0 0 0 0 0 0 0 0 0 0 0 -0 -0 -0 0 0 0 0 0 0 0 0 0 0 0 0 0 0 0 0 0 0 0 0 0 0 0 0 0 0
0 0 0 0 0 0 0 0 0 0 0 0 0 0 -0 -0 -0 -0 0 0 0 0 0 0 0 0 0 0 0 0 0 0 0 0 0 0 0 0 0 0 0 0 0 0
0 0 0 0 0 0 0 0 0 0 0 0 0 0 -0 -0 -0 -0 0 0 0 0 0 0 0 0 0 0 0 0 0 0 0 0 0 0 0 0 0 0 0 0 0 0
0 0 0 0 0 0 0 0 0 0 0 0 0 0 -0 -0 -0 -0 0 0 0 0 0 0 0 0 0 0 0 0 0 0 0 0 0 0 0 0 0 0 0 0 0 0
0 0 0 0 0 0 0 0 0 0 0 0 0 0 -0 -0 -0 -0 0 0 0 0 0 0 0 0 0 0 0 0 0 0 0 0 0 0 0 0 0 0 0 0 0 0
0 0 0 0 0 0 0 0 0 0 0 0 0 0 0 -0 -0 -0 0 0 0 0 0 0 0 0 0 0 0 0 0 0 0 0 0 0 0 0 0 0 0 0 0 0
0 0 0 0 0 0 0 0 0 0 0 0 0 0 0 0 0 0 0 0 0 0 0 0 0 0 0 0 0 0 0 0 0 0 0 0 0 0 0 0 0 0 0 0
0 0 0 0 0 0 0 0 0 -0 -0 0 0 0 0 0 0 0 0 0 0 0 0 0 0 0 0 0 0 0 0 0 0 0 0 0 0 0 0 0 0 0 0 0
0 0 0 0 0 0 0 0 0 0 0 0 0 0 0 0 0 0 0 0 0 0 0 0 0 0 0 0 0 0 0 0 0 0 0 0 0 0 0 0 0 0 0 0
0 0 0 0 0 0 0 0 0 0 0 0 0 0 0 0 0 0 0 0 0 0 0 0 0 0 0 0 0 0 0 0 0 0 0 0 0 0 0 0 0 0 0 0
Wind_Speed
8 7 5 8 9 9 10 10 11 11 11 13 8 6 6 5 5 5 5 5 5 4 4 4 4 4 3 4 3 3 3 4 5 5 4 4 4 4 4 4 4 4 4 4
6 6 7 11 13 13 13 12 13 13 16 9 5 4 5 6 6 6 6 6 5 5 5 5 5 4 4 4 4 3 4 5 5 4 4 4 4 4 4 4 4 4 4 4
5 3 4 11 12 14 9 9 9 12 11 4 3 5 6 6 6 7 7 6 6 5 5 5 5 5 5 4 3 3 4 5 4 4 5 5 4 4 4 4 4 4 4 4
3 1 10 9 2 7 8 7 8 7 6 4 6 6 5 6 5 6 6 6 6 5 5 4 4 4 4 3 3 4 4 5 5 4 5 4 4 5 5 4 4 4 4 5
3 5 11 9 4 5 6 6 6 8 7 5 3 3 4 4 5 5 5 5 5 5 4 4 4 3 3 3 3 4 5 5 5 5 5 4 5 6 5 4 4 4 4 4
5 6 9 6 2 2 3 5 4 5 5 3 1 2 5 4 3 4 5 4 4 4 3 3 4 3 3 4 4 6 6 6 5 5 5 6 6 5 4 4 5 4 4 4
8 8 10 7 2 3 3 6 2 3 4 4 5 6 5 4 4 4 5 5 4 3 3 4 3 2 4 4 6 6 5 5 5 5 5 5 5 4 3 4 3 3 4 4
6 8 12 3 5 5 6 3 2 3 4 4 5 6 5 5 5 5 5 5 4 3 4 4 3 3 5 6 6 4 4 4 5 5 4 4 4 4 3 4 4 4 3 4
10 10 4 3 5 4 3 4 4 4 4 4 5 6 6 6 5 5 5 5 4 4 5 5 4 4 6 7 5 4 4 5 5 4 4 3 4 4 3 3 3 3 3 4
7 9 7 7 6 6 4 5 5 5 5 4 6 6 6 6 6 5 5 5 4 4 5 6 5 5 6 6 4 4 5 5 4 4 4 3 3 3 4 4 4 4 4 4
9 8 7 7 7 7 6 6 6 6 5 6 6 7 7 6 6 5 5 5 4 5 6 7 6 6 6 5 4 5 5 5 4 4 4 4 4 4 5 5 6 5 5 4
10 8 7 8 6 5 6 7 7 6 6 5 5 7 6 6 5 5 5 5 5 6 6 7 6 6 6 5 4 5 5 4 3 3 3 3 3 3 5 6 8 9 8 6
11 8 8 8 6 5 6 6 6 6 6 6 6 5 5 5 5 5 5 6 6 7 7 7 6 7 6 5 5 5 6 5 3 3 3 3 3 3 3 4 6 8 8 8
8 6 7 6 7 6 6 6 5 5 5 5 5 5 5 5 5 5 6 6 6 6 6 6 6 7 6 5 5 6 5 6 5 4 4 4 4 4 3 3 3 3 5 7
7 6 7 6 6 5 5 4 4 5 5 5 4 5 5 6 7 7 7 6 5 6 6 6 7 8 5 4 5 6 5 4 4 3 4 4 3 3 3 4 3 3 2 3
5 4 5 5 6 6 5 4 5 6 6 6 6 6 6 7 7 7 6 5 5 7 7 7 8 7 5 5 5 4 4 6 5 4 3 3 3 3 4 4 4 3 3 3
4 5 5 5 6 6 6 6 6 7 6 7 7 7 6 6 7 7 7 6 6 7 7 7 7 6 5 5 5 4 4 4 6 4 3 4 3 4 4 4 4 4 4 4
4 5 5 6 6 7 7 6 6 7 7 7 6 6 6 6 8 8 8 6 6 6 6 6 6 5 5 5 4 4 3 3 3 3 3 3 3 3 4 4 4 4 3 3
3 4 4 5 6 6 6 7 7 6 7 6 6 7 7 8 8 8 6 5 6 8 7 5 7 5 5 6 5 3 3 4 3 3 3 4 4 3 3 3 4 3 3 3
4 4 5 6 6 5 6 7 6 6 6 6 6 7 8 8 7 6 6 7 7 6 6 6 6 5 5 5 5 3 3 4 4 3 3 3 3 3 3 3 3 3 3 3
6 6 6 6 7 7 7 7 6 7 7 6 7 8 8 8 7 5 5 7 7 5 5 8 5 4 4 4 5 3 3 4 4 3 4 3 3 4 3 3 3 3 3 3
5 6 7 7 7 7 7 6 6 7 7 7 7 7 7 8 7 6 7 7 6 7 5 4 4 6 6 6 3 3 4 4 4 3 4 4 4 4 4 4 4 4 3 3
6 6 7 7 7 7 8 7 7 7 7 8 8 8 8 7 6 5 7 5 4 7 5 4 6 9 9 4 3 4 4 4 4 4 4 4 4 4 4 4 4 4 4 3
7 7 7 7 6 6 8 8 7 6 7 8 8 8 7 6 6 5 5 7 8 9 5 6 9 9 7 3 3 3 4 4 4 4 4 4 4 4 4 4 4 4 4 4
7 7 7 6 6 6 7 7 7 7 6 6 7 7 6 5 6 5 4 5 8 8 5 6 9 8 4 3 3 3 4 4 4 4 4 4 4 4 4 4 4 4 4 4
7 6 7 7 6 6 5 5 5 5 5 6 6 5 4 4 5 5 4 5 6 7 5 4 4 4 3 3 3 3 3 4 4 4 4 4 4 4 4 4 5 4 4 4
6 6 5 6 6 5 5 5 6 6 6 6 7 6 5 4 4 4 5 4 4 4 3 3 3 3 3 3 3 3 3 3 3 3 3 3 3 4 4 5 4 3 3 4
Wind_Direction
250 257 245 242 239 218 214 216 225 244 247 261 261 262 268 271 275 280 279 273 260 253 253 253 258 259 254 253 248 237 235 238 243 245 237 233 234 236 235 233 238 241 247 255
268 251 248 259 248 233 234 234 240 258 268 266 261 256 265 268 266 269 268 263 262 257 252 251 251 254 254 251 249 237 240 247 251 248 242 237 236 235 234 239 242 239 242 249
269 284 295 261 234 216 215 212 205 231 247 268 266 257 253 257 259 260 263 264 262 258 249 250 249 243 244 245 246 242 248 253 249 243 242 242 240 234 236 240 240 244 247 249
266 315 245 245 211 199 212 232 214 233 254 250 251 260 259 247 245 260 264 265 263 257 254 253 250 249 251 249 242 245 252 254 250 243 244 244 236 236 240 239 237 243 248 248
219 247 273 285 247 185 193 251 217 225 254 270 287 310 287 247 227 239 252 256 255 251 249 251 252 247 249 254 250 249 251 251 249 244 244 240 237 239 238 234 240 242 247 245
211 233 249 252 241 176 136 264 232 200 232 246 125 301 274 274 273 273 272 266 262 259 253 252 254 241 241 253 253 253 252 252 250 243 240 240 240 239 235 229 238 240 247 243
224 242 262 254 209 125 189 249 268 209 224 212 215 232 255 274 278 276 279 279 276 267 257 254 249 233 248 256 254 256 259 258 254 247 243 243 241 239 231 230 232 235 246 249
197 226 252 213 142 188 229 270 273 250 238 236 251 265 269 271 273 281 285 284 279 269 267 264 243 227 249 257 259 264 264 264 261 257 252 244 235 239 226 217 226 237 245 256
204 223 251 198 214 242 247 262 266 261 263 255 265 270 270 270 274 277 275 275 270 259 268 270 249 227 246 259 262 264 266 267 266 263 256 240 229 233 228 214 219 234 238 250
250 260 264 263 259 258 250 252 261 262 265 259 261 267 273 274 275 274 272 271 268 261 263 270 263 247 247 259 257 252 257 264 264 258 258 249 236 225 220 217 219 227 235 244
253 269 284 268 245 252 256 253 260 268 263 253 255 266 267 270 270 269 273 272 264 257 261 266 267 262 259 253 244 247 252 256 256 252 251 250 244 232 225 223 218 220 227 228
246 244 243 263 264 256 255 260 260 265 273 265 245 253 260 261 261 262 267 268 266 263 262 267 267 266 265 251 233 235 249 251 247 249 249 246 250 268 252 243 247 244 242 237
248 257 253 266 273 266 262 264 262 257 256 266 263 249 250 259 262 263 266 265 263 265 267 269 268 269 268 254 235 231 240 245 244 240 239 240 238 242 268 272 254 251 248 248
255 258 265 262 264 269 262 263 265 265 261 257 259 259 255 258 262 264 265 266 266 268 269 269 268 269 267 254 239 238 240 242 240 236 236 235 234 233 233 240 256 263 255 253
257 242 248 265 274 275 271 267 270 271 270 268 257 253 253 256 263 266 267 268 270 270 270 269 269 271 268 252 243 241 240 239 234 238 238 236 234 232 232 234 238 248 262 262
272 271 266 267 271 275 277 268 263 266 265 263 262 259 256 256 261 268 269 261 261 268 271 269 270 272 264 252 250 246 242 244 241 238 236 230 226 228 229 230 233 235 239 242
261 271 270 274 275 277 273 266 261 263 264 261 261 265 268 270 273 274 272 262 256 262 265 265 271 275 264 251 244 245 244 243 239 239 231 225 225 227 228 228 230 235 239 237
240 251 259 262 268 276 279 275 269 266 264 264 267 268 267 265 266 270 273 276 277 278 271 264 266 270 263 255 244 239 235 232 227 228 230 226 229 228 229 231 233 237 244 245
277 271 275 277 273 269 271 274 271 267 269 267 265 264 263 262 262 266 270 271 272 277 276 267 270 267 261 258 253 236 228 230 231 231 229 237 240 230 226 228 233 234 235 235
288 283 281 282 283 274 275 278 276 275 271 265 265 269 272 271 267 264 263 263 257 256 265 269 269 262 257 255 248 232 225 226 227 227 226 226 229 231 229 228 228 231 232 230
282 282 282 284 286 285 278 276 274 276 278 269 261 263 268 273 270 263 263 272 272 257 258 264 262 255 250 246 241 228 223 225 226 225 226 228 231 233 231 229 230 232 231 233
276 277 279 280 282 286 284 277 270 271 276 275 270 268 271 274 274 270 257 256 269 268 268 258 255 256 258 256 232 224 224 225 226 224 226 227 228 231 232 231 233 235 232 231
274 273 275 276 276 280 286 282 273 269 270 271 270 267 264 264 262 263 275 271 261 266 269 260 264 265 265 255 231 225 226 227 227 227 226 226 227 228 231 232 232 231 229 228
274 274 275 276 277 279 282 282 280 273 269 270 268 265 263 268 270 254 255 271 274 274 268 267 272 272 268 250 228 227 228 227 226 226 225 226 227 228 229 231 233 230 226 225
272 273 274 275 275 272 272 279 285 283 280 277 275 271 261 250 256 268 267 263 267 274 274 271 271 271 264 240 230 231 229 227 225 221 219 221 224 226 228 228 228 226 224 225
268 268 268 264 264 268 271 272 275 277 280 284 285 279 271 263 257 262 264 263 261 269 269 265 263 261 248 239 236 235 234 239 242 235 224 222 223 223 226 228 227 224 223 226
270 268 271 275 269 257 255 258 263 270 270 272 280 284 279 275 271 268 265 265 264 263 261 257 251 244 241 239 240 240 237 233 230 229 227 226 224 223 223 224 226 223 220 222